This demonstration page uses our WeatherBlox Daily Observations layout. Learn more.

Left ArrowRight Arrow

41.86663, -103.66717

Hourly Observations for March 28, 2021

Temp ( °F °C ) Dew Point ( °F °C ) Humidity (%) Winds ( mph kmh ) Pressure ( in mb ) Visibility ( mi km ) Precip ( " mm )
12:53 am 00:53 Clear 28 -2.2 26 -3.3 92 92 undefined N/A 30.26 1025 10 16.0934 0 0
1:53 am 01:53 Clear 28 -2.2 25 -3.9 88 88 NNE 6 9 30.26 1025 10 16.0934 0 0
2:53 am 02:53 Clear 28 -2.2 27 -2.8 96 96 NNE 7 11 30.25 1025 10 16.0934 0 0
3:53 am 03:53 Clear 26 -3.3 24 -4.4 92 92 E 3 6 30.23 1024 10 16.0934 0 0
4:53 am 04:53 Clear 26 -3.3 23 -5 88 88 E 5 7 30.22 1023 10 16.0934 0 0
5:53 am 05:53 Clear 27 -2.8 24 -4.4 89 89 E 5 7 30.2 1023 10 16.0934 0 0
6:53 am 06:53 Sunny 27 -2.8 25 -3.9 92 92 ENE 6 9 30.2 1023 10 16.0934 0 0
7:53 am 07:53 Sunny 34 1.1 30 -1.1 85 85 NW 3 6 30.21 1023 10 16.0934 0 0
8:53 am 08:53 Sunny 41 5 35 1.7 79 79 WNW 6 9 30.19 1022 10 16.0934 0 0
9:53 am 09:53 Sunny 51 10.6 47 8.3 86 86 W 14 22 30.14 1021 10 16.0934 0 0
10:53 am 10:53 Sunny 57 13.9 53 11.7 87 87 WNW 24 39 30.11 1020 10 16.0934 0 0
11:53 am 11:53 Sunny 61 16.1 57 13.9 87 87 W 21 33 30.06 1018 10 16.0934 0 0
12:53 pm 12:53 Sunny 60 15.6 56 13.3 86 86 W 22 35 30.06 1018 10 16.0934 0 0
1:53 pm 13:53 Sunny 63 17.2 60 15.6 90 90 W 28 44 30.02 1017 10 16.0934 0 0
2:53 pm 14:53 Sunny 65 18.3 63 17.2 93 93 W 24 39 29.99 1016 10 16.0934 0 0
3:53 pm 15:53 Sunny 67 19.4 65 18.3 93 93 W 22 35 29.96 1015 10 16.0934 0 0
4:53 pm 16:53 Sunny 65 18.3 63 17.2 93 93 W 22 35 29.96 1015 10 16.0934 0 0
5:53 pm 17:53 Sunny 64 17.8 62 16.7 93 93 W 21 33 29.94 1014 10 16.0934 0 0
6:45 pm 18:45 Mostly Sunny 60 15.6 56 13.3 86 86 W 20 31 29.8 1009 10 16.0934 0 0
6:53 pm 18:53 Sunny 59 15 55 12.8 87 87 W 16 26 29.93 1014 10 16.0934 0 0
7:53 pm 19:53 Clear 59 15 54 12.2 83 83 SW 10 17 29.9 1013 10 16.0934 0 0
8:53 pm 20:53 Clear 53 11.7 25 -3.9 34 34 SSW 8 13 29.89 1012 10 16.0934 0 0
9:53 pm 21:53 Clear 59 15 22 -5.6 24 24 WSW 20 31 29.83 1010 10 16.0934 0 0
10:53 pm 22:53 Clear 56 13.3 24 -4.4 29 29 WSW 17 28 29.79 1009 10 16.0934 0 0
11:53 pm 23:53 Clear 57 13.9 23 -5 27 27 SW 18 30 29.75 1008 10 16.0934 0 0

Powered by AerisWeather